Home   Weather   Leirvik   Past weeks

Flag for Norway Past Weather in Leirvik, Norway — Yesterday and Last 2 Weeks

Now
46 °F

Cool.


Feels Like: 43 °F
Forecast: 44 / 47 °F
Wind: 7 mph from West

Location: Slatteroy Fyr

Current Time: Dec 3, 2016 at 4:39:20 pm

Latest Report: Dec 3, 2016 at 4:00 pm


Visibility: N/A

Pressure: 30.19 "Hg

Humidity: 84%

Dew Point: 42 °F

Location of LeirvikLocation

Past Weather in Leirvik — Graph

°F

Leirvik Temperature Yesterday

Maximum temperature yesterday: 42 °F (at 12:00 pm)
Minimum temperature yesterday: 39 °F (at 5:00 am)
Average temperature yesterday: 41 °F

High & Low Weather Summary for the Past Weeks

 TemperatureHumidityPressure
High48 °F (Dec 1, 9:00 am)96% (Nov 30, 10:00 pm)30.47 "Hg (Nov 30, 10:00 pm)
Low37 °F (Nov 28, 9:00 pm)48% (Nov 30, 8:00 am)28.91 "Hg (Nov 18, 3:00 pm)
Average42 °F80%29.78 "Hg
* Reported Nov 18 3:00 pm — Dec 3 3:00 pm, Leirvik, Weather by CustomWeather, © 2016

Note: Actual official high and low records may vary slightly from our data, if they occured in-between our weather recording intervals... More about our weather records

Advertising

Leirvik Weather History for the Previous 24 Hours

Scroll right to see more
 ConditionsComfort  
Time TempWeatherWind HumidityBarometerVisibility
3:00 pm
Sat, Dec 3
46 °FCool.6 mph83%30.19 "HgN/A
2:00 pm45 °FQuite cool.3 mph82%30.19 "HgN/A
1:00 pm44 °FQuite cool.2 mph89%30.19 "HgN/A
12:00 pm45 °FQuite cool.3 mph87%30.20 "HgN/A
11:00 am45 °FQuite cool.6 mph82%30.20 "HgN/A
10:00 am45 °FQuite cool.10 mph91%30.20 "HgN/A
9:00 am39 °FChilly.6 mph92%30.21 "HgN/A
8:00 am39 °FChilly.6 mph88%30.21 "HgN/A
7:00 am40 °FChilly.5 mph87%30.22 "HgN/A
6:00 am43 °FQuite cool.5 mph77%30.23 "HgN/A
5:00 am43 °FQuite cool.5 mph74%30.24 "HgN/A
4:00 am44 °FQuite cool.6 mph70%30.24 "HgN/A
2:00 am39 °FChilly.2 mph78%30.26 "HgN/A
1:00 am39 °FChilly.2 mph80%30.27 "HgN/A
12:00 am41 °FQuite cool.No wind73%30.27 "HgN/A
11:00 pm
Fri, Dec 2
42 °FQuite cool.2 mph70%30.27 "HgN/A
10:00 pm40 °FChilly.1 mph77%30.27 "HgN/A
9:00 pm41 °FQuite cool.No wind75%30.28 "HgN/A
8:00 pm41 °FQuite cool.1 mph74%30.28 "HgN/A
7:00 pm41 °FQuite cool.2 mph67%30.28 "HgN/A
6:00 pm41 °FQuite cool.3 mph70%30.27 "HgN/A
5:00 pm41 °FQuite cool.5 mph72%30.27 "HgN/A
4:00 pm41 °FQuite cool.3 mph73%30.27 "HgN/A
Weather by CustomWeather, © 2016

See weather overviewHow to use our weather pages